Location: Maiden
(35.5760°N, 81.2120°W)
Time: 00:20:47
(UTC-04:00)

A-11 Canister half - Pass Details

Date: 04 August 2020
Orbit: 1527 x 1682 km, 47.3° (Epoch: 25 September)

Event Time Altitude Azimuth Distance (km) Brightness Sun altitude
Rises 19:02:13 0° 297° (WNW) 4,925 13.1 15.4°
Reaches altitude 10° 19:05:35 10° 303° (WNW) 3,924 12.7 14.8°
Maximum altitude 19:15:17 50° 17° (NNE) 2,005 9.8 12.8°
Drops below altitude 10° 19:24:41 10° 91° (E) 3,810 10.5 11.0°
Sets 19:27:54 0° 97° (E) 4,772 10.9 10.3°
